[[{"header":{"parameterUnit":"m.s-1","parameterCategory":1,"la1":30.2991,"la2":30.254,"lo1":-89.0895,"lo2":-89.0444,"dy":0.0017,"dx":0.0017,"nx":28,"ny":28,"refTime":"2024-03-10T09:00:00:Z","depth":0,"parameterNumber":2,"parameterNumberName":"U-component_of_WINDS"},"data":[0,0,0,0,0,0,0,0,0,0,0,0,0,0,0,0,0,0,0,0,0,0,0,0,0,0,0,0,0,0,0,0,0,0,0,0,0,0,0,0,0,0,0,0,0,0,0,0,0,0,0,0,0,0,0,0,0,0,-3.0533,-3.0534,0,-3.0655,-3.0656,-3.0657,-3.056,-3.0556,-3.0552,-3.0548,-3.0676,-3.0683,-3.069,0,0,0,0,0,0,0,0,0,0,0,0,0,-3.0218,-3.0224,-3.0533,-3.0534,-3.0536,-3.0654,-3.0656,-3.0658,-3.0561,-3.0556,-3.055,-3.0546,-3.0674,-3.0682,-3.0691,0,0,0,0,0,0,0,0,0,0,0,0,0,-3.0349,-3.0226,-3.0533,-3.0502,-3.05,-3.0654,-3.0656,-3.0658,-3.0562,-3.0555,-3.0549,-3.0543,-3.0671,-3.0681,-3.0692,-3.0884,0,0,-3.0725,-3.073,0,0,0,0,0,0,0,0,-3.0341,-3.036,-3.0505,-3.0504,-3.0503,-3.0586,-3.0592,-3.0734,-3.0563,-3.0538,-3.0547,-3.054,-3.0651,-3.0663,-3.07,-3.089,-3.0896,-3.0726,-3.0733,-3.0738,-3.0741,0,0,0,0,0,0,0,-3.0332,-3.0355,-3.0581,-3.0507,-3.0506,-3.0482,-3.0494,-3.0618,-3.0628,-3.054,-3.0533,-3.0549,-3.0649,-3.069,-3.0702,-3.0898,-3.0726,-3.0736,-3.0743,-3.0747,-3.125,-3.1256,0,0,0,0,0,0,-3.0326,-3.0348,-3.0577,-3.0585,-3.0405,-3.0493,-3.0506,-3.0565,-3.0627,-3.063,-3.0554,-3.0544,-3.0674,-3.069,-3.0706,-3.0935,-3.0738,-3.0748,-3.0754,-3.1243,-3.1251,-3.1259,0,0,0,0,0,0,-3.032,-3.0347,-3.0572,-3.0464,-3.0491,-3.0505,-3.0572,-3.0571,-3.0611,-3.0637,-3.0639,-3.0593,-3.067,-3.0691,-3.084,-3.0938,-3.0753,-3.0763,-3.1235,-3.1246,-3.1255,-3.1394,0,0,0,0,0,0,-3.0311,-3.0346,-3.0419,-3.0467,-3.0497,-3.0704,-3.0578,-3.0578,-3.063,-3.0618,-3.0674,-3.0678,-3.0666,-3.0824,-3.0851,-3.095,-3.0771,-3.1227,-3.124,-3.1252,-3.1381,-3.1408,-3.1431,0,0,0,0,0,-3.03,-3.0454,-3.0423,-3.0451,-3.0589,-3.071,-3.0728,-3.0711,-3.0638,-3.0712,-3.0728,-3.0676,-3.0922,-3.084,-3.087,-3.0973,-3.122,-3.1236,-3.1251,-3.137,-3.1403,-3.143,0,0,0,0,0,0,-3.042,-3.046,-3.0426,-3.06,-3.0652,-3.0693,-3.0786,-3.0746,-3.0821,-3.0807,-3.0782,-3.0796,-3.0953,-3.0977,-3.0885,-3.1161,-3.106,-3.1082,-3.114,-3.1172,-3.1196,-3.1188,-3.078,0,0,0,0,0,-3.0466,-3.056,-3.0591,-3.0742,-3.0769,-3.0773,-3.0826,-3.0807,-3.0861,-3.0883,-3.091,-3.0965,-3.1054,-3.1114,-3.1198,-3.1383,-3.1394,-3.1468,-3.1493,-3.1514,-3.1534,-3.1633,-3.1666,-3.1309,-3.1309,-3.1309,0,0,-3.0564,-3.0597,-3.0659,-3.0766,-3.0805,-3.0903,-3.0793,-3.0902,-3.0975,-3.09,-3.1042,-3.1064,-3.1123,-3.1291,-3.1366,-3.1316,-3.1634,-3.1533,-3.1549,-3.1558,-3.1652,-3.1686,-3.1716,-3.132,-3.1318,-3.1316,0,0,-3.0792,-3.0827,-3.0956,-3.0995,-3.1054,-3.1055,-3.1086,-3.1133,-3.1144,-3.1285,-3.123,-3.1317,-3.1471,-3.1516,-3.1558,-3.18,-3.1755,-3.1827,-3.1959,-3.2056,-3.2084,-3.2109,-3.2195,-3.2227,-3.1847,-3.1847,-3.1847,0,-3.0907,-3.1052,-3.1028,-3.1141,-3.1189,-3.1123,-3.1253,-3.1293,-3.1377,-3.1412,-3.1354,-3.1546,-3.1581,-3.1758,-3.1816,-3.1853,-3.1888,-3.1822,-3.2082,-3.2106,-3.2129,-3.2212,-3.2244,-3.1856,-3.1855,-3.1854,-3.1853,0,-3.119,-3.1292,-3.1389,-3.1469,-3.1529,-3.165,-3.1644,-3.1707,-3.1682,-3.169,-3.1834,-3.1873,-3.1964,-3.2003,-3.1982,-3.2177,-3.2144,-3.2085,-3.1983,-3.2172,-3.2249,-3.228,-3.1868,-3.1865,-3.1862,-3.186,0,0,-3.1501,-3.1563,-3.16,-3.1634,-3.1692,-3.1771,-3.1888,-3.1974,-3.2029,-3.2088,-3.2186,-3.2317,-3.2261,-3.231,-3.2292,-3.2377,-3.2565,-3.2306,-3.2307,-3.2354,-3.2783,-3.2829,-3.2865,-3.2534,-3.254,-3.2545,-3.2778,0,-3.1732,-3.1936,-3.1916,-3.211,-3.2203,-3.214,-3.2242,-3.2289,-3.2298,-3.2378,-3.2388,-3.2482,-3.2401,-3.2429,-3.251,-3.2525,-3.2651,-3.2508,-3.2627,-3.2631,-3.2616,-3.2906,-3.2955,-3.3173,-3.2808,-3.2813,-3.2817,0,-3.2031,-3.2098,-3.2301,-3.2343,-3.2381,-3.2474,-3.255,-3.2627,-3.2679,-3.2679,-3.2732,-3.2698,-3.2816,-3.2709,-3.2872,-3.2775,-3.2821,-3.2836,-3.2844,-3.2856,-3.2737,-3.2927,-3.3242,-3.3276,-3.2864,-3.286,-3.2856,0,-3.2238,-3.2379,-3.2518,-3.255,-3.2602,-3.2668,-3.2693,-3.2738,-3.279,-3.2857,-3.2891,-3.2971,-3.3015,-3.3078,-3.3067,-3.299,-3.3233,-3.3125,-3.3237,-3.3238,-3.3293,-3.329,-3.3622,-3.3321,-3.3321,-3.332,-3.3319,0,-3.25,-3.2627,-3.2612,-3.2698,-3.2838,-3.2812,-3.2952,-3.2968,-3.3008,-3.3096,-3.3046,-3.313,-3.3109,-3.3192,-3.3184,-3.332,-3.334,-3.3344,-3.3341,-3.335,-3.335,-3.3382,-3.3367,-3.3329,-3.3327,-3.3325,-3.3323,0,-3.2756,-3.2751,-3.2899,-3.2935,-3.2946,-3.3048,-3.3079,-3.316,-3.3163,-3.3275,-3.33,-3.3306,-3.3401,-3.3395,-3.3504,-3.3498,-3.3665,-3.3643,-3.3648,-3.3644,-3.3757,-3.3747,-3.4123,-3.4171,-3.3837,-3.384,-3.3843,0,-3.2924,-3.302,-3.3065,-3.312,-3.3149,-3.3238,-3.329,-3.3268,-3.3325,-3.3388,-3.3462,-3.3552,-3.3623,-3.3777,-3.3792,-3.3874,-3.3854,-3.398,-3.3867,-3.3872,-3.3857,-3.3852,-3.3861,-3.4003,-3.4007,-3.401,-3.4013,0,-3.3224,-3.3216,-3.3293,-3.3369,-3.3433,-3.3492,-3.3546,-3.3594,-3.3577,-3.3643,-3.3739,-3.3794,-3.3902,-3.3992,-3.4069,-3.4095,-3.4052,-3.4048,-3.4078,-3.4089,-3.4088,-3.4091,-3.3711,-3.404,-3.4037,-3.4035,-3.4034,-3.4033,-3.3442,-3.3523,-3.3567,-3.3654,-3.3692,-3.3743,-3.382,-3.3832,-3.3911,-3.3997,-3.3979,-3.4086,-3.4133,-3.4232,-3.4264,-3.4348,-3.4303,-3.4347,-3.4359,-3.437,-3.4383,-3.4073,-3.4362,-3.4361,-3.4361,-3.436,-3.4359,0,-3.3739,-3.3763,-3.3843,-3.3919,-3.3988,-3.3938,-3.3994,-3.4055,-3.415,-3.4196,-3.4266,-3.4375,-3.4462,-3.4481,-3.4564,-3.4627,-3.4609,-3.465,-3.4646,-3.4652,-3.4419,-3.4385,-3.4663,-3.4663,-3.4663,-3.4663,-3.4663,-3.4662,-3.3902,-3.4037,-3.4034,-3.4187,-3.421,-3.4314,-3.435,-3.4397,-3.4433,-3.4557,-3.4628,-3.4639,-3.4675,-3.4759,-3.4836,-3.4839,-3.4873,-3.4921,-3.4917,-3.4699,-3.4669,-3.464,-3.4608,-3.4928,-3.4929,-3.5144,-3.5146,-3.5147]},{"header":{"parameterUnit":"m.s-1","parameterCategory":1,"la1":30.2991,"la2":30.254,"lo1":-89.0895,"lo2":-89.0444,"dy":0.0017,"dx":0.0017,"nx":28,"ny":28,"refTime":"2024-03-10T09:00:00:Z","depth":0,"parameterNumber":3,"parameterNumberName":"V-component_of_WINDS"},"data":[0,0,0,0,0,0,0,0,0,0,0,0,0,0,0,0,0,0,0,0,0,0,0,0,0,0,0,0,0,0,0,0,0,0,0,0,0,0,0,0,0,0,0,0,0,0,0,0,0,0,0,0,0,0,0,0,0,0,-3.3965,-3.3966,0,-3.4075,-3.4076,-3.4077,-3.4038,-3.4036,-3.4033,-3.4031,-3.4145,-3.415,-3.4155,0,0,0,0,0,0,0,0,0,0,0,0,0,-3.372,-3.3724,-3.3964,-3.3966,-3.3967,-3.4075,-3.4076,-3.4078,-3.4039,-3.4036,-3.4033,-3.403,-3.4143,-3.4149,-3.4156,0,0,0,0,0,0,0,0,0,0,0,0,0,-3.3827,-3.3726,-3.3964,-3.3961,-3.3962,-3.4074,-3.4076,-3.4078,-3.4039,-3.4036,-3.4032,-3.4028,-3.4141,-3.4149,-3.4157,-3.4279,0,0,-3.4181,-3.4184,0,0,0,0,0,0,0,0,-3.3821,-3.3837,-3.396,-3.3961,-3.3962,-3.4039,-3.4031,-3.4146,-3.404,-3.401,-3.4031,-3.4027,-3.4113,-3.4123,-3.4151,-3.4285,-3.429,-3.4182,-3.4186,-3.419,-3.4192,0,0,0,0,0,0,0,-3.3814,-3.3832,-3.4008,-3.3962,-3.3963,-3.3953,-3.3965,-3.4053,-3.4081,-3.4012,-3.401,-3.4023,-3.4113,-3.4144,-3.4154,-3.4291,-3.4181,-3.4188,-3.4193,-3.4196,-3.4529,-3.4533,0,0,0,0,0,0,-3.3806,-3.3826,-3.4005,-3.4011,-3.3881,-3.3961,-3.3973,-3.4018,-3.4079,-3.4085,-3.4026,-3.4021,-3.4132,-3.4145,-3.4158,-3.4305,-3.419,-3.4197,-3.4202,-3.4525,-3.453,-3.4535,0,0,0,0,0,0,-3.3801,-3.3822,-3.4,-3.3918,-3.394,-3.3969,-3.4019,-3.4022,-3.4053,-3.409,-3.4095,-3.4053,-3.413,-3.4146,-3.4249,-3.4308,-3.4201,-3.4208,-3.452,-3.4527,-3.4532,-3.4601,0,0,0,0,0,0,-3.3794,-3.3821,-3.3868,-3.3919,-3.3944,-3.409,-3.4023,-3.4027,-3.4067,-3.4061,-3.4117,-3.4122,-3.4128,-3.4237,-3.4257,-3.4317,-3.4214,-3.4515,-3.4523,-3.453,-3.4593,-3.4608,-3.4621,0,0,0,0,0,-3.3785,-3.3884,-3.3871,-3.3893,-3.4004,-3.4094,-3.4108,-3.4113,-3.4072,-3.412,-3.4143,-3.412,-3.4298,-3.4248,-3.427,-3.4334,-3.4512,-3.4521,-3.453,-3.4587,-3.4605,-3.4621,0,0,0,0,0,0,-3.3839,-3.389,-3.3877,-3.3994,-3.404,-3.4087,-3.4147,-3.4132,-3.419,-3.4183,-3.4186,-3.4198,-3.4304,-3.4329,-3.4272,-3.4455,-3.4399,-3.4413,-3.4435,-3.4453,-3.4466,-3.4458,-3.4221,0,0,0,0,0,-3.3865,-3.3933,-3.3974,-3.4074,-3.4097,-3.4118,-3.4158,-3.4157,-3.4204,-3.4224,-3.4254,-3.4301,-3.4367,-3.4411,-3.4475,-3.4596,-3.4607,-3.4651,-3.4664,-3.4676,-3.4688,-3.4753,-3.4773,-3.4565,-3.4564,-3.4564,0,0,-3.3919,-3.3955,-3.3998,-3.4086,-3.4121,-3.4191,-3.4135,-3.4212,-3.4265,-3.4235,-3.4334,-3.4358,-3.4411,-3.4523,-3.4574,-3.4547,-3.4748,-3.4687,-3.4696,-3.4702,-3.4764,-3.4784,-3.4802,-3.4571,-3.457,-3.4569,0,0,-3.4052,-3.4087,-3.4173,-3.4209,-3.4263,-3.4276,-3.4296,-3.4346,-3.436,-3.4459,-3.4438,-3.45,-3.4615,-3.4652,-3.4687,-3.4832,-3.4814,-3.4853,-3.4926,-3.499,-3.5006,-3.5021,-3.5072,-3.5091,-3.4865,-3.4865,-3.4865,0,-3.4113,-3.4218,-3.422,-3.4298,-3.4337,-3.4313,-3.44,-3.4435,-3.4506,-3.4534,-3.4502,-3.4644,-3.4678,-3.4798,-3.4833,-3.4862,-3.4885,-3.4847,-3.5003,-3.5018,-3.5032,-3.5081,-3.51,-3.4869,-3.4869,-3.4868,-3.4868,0,-3.4289,-3.4362,-3.4425,-3.4494,-3.454,-3.4623,-3.4636,-3.4682,-3.4677,-3.4693,-3.4793,-3.4832,-3.4902,-3.493,-3.4927,-3.505,-3.5032,-3.5002,-3.4946,-3.5056,-3.5102,-3.5121,-3.4876,-3.4874,-3.4873,-3.4872,0,0,-3.4462,-3.4529,-3.4552,-3.4582,-3.4639,-3.4696,-3.4776,-3.4844,-3.4883,-3.4933,-3.5,-3.5097,-3.5069,-3.5108,-3.5107,-3.5163,-3.5275,-3.5126,-3.5128,-3.5153,-3.5413,-3.5435,-3.5457,-3.5262,-3.5266,-3.5269,-3.5408,0,-3.46,-3.4742,-3.4744,-3.4874,-3.4942,-3.4918,-3.4988,-3.503,-3.5047,-3.5106,-3.5124,-3.5193,-3.5151,-3.5174,-3.5228,-3.525,-3.5327,-3.524,-3.5325,-3.5328,-3.5314,-3.5481,-3.5506,-3.5635,-3.5427,-3.543,-3.5432,0,-3.4781,-3.4835,-3.4972,-3.5017,-3.5045,-3.5108,-3.517,-3.5226,-3.5273,-3.5281,-3.5324,-3.5314,-3.5396,-3.5337,-3.5449,-3.5389,-3.5424,-3.544,-3.5445,-3.5454,-3.5387,-3.5495,-3.5677,-3.5697,-3.546,-3.5458,-3.5456,0,-3.4892,-3.5,-3.5095,-3.5122,-3.5177,-3.5222,-3.5247,-3.529,-3.533,-3.5383,-3.5409,-3.5472,-3.5506,-3.5555,-3.5562,-3.5518,-3.5675,-3.5616,-3.5684,-3.5684,-3.5719,-3.5717,-3.591,-3.5741,-3.5741,-3.574,-3.574,0,-3.5047,-3.5131,-3.5146,-3.5205,-3.5298,-3.53,-3.5392,-3.5413,-3.5451,-3.5513,-3.5497,-3.5555,-3.5562,-3.5622,-3.5629,-3.572,-3.5736,-3.5745,-3.5746,-3.5747,-3.5746,-3.577,-3.5761,-3.5745,-3.5744,-3.5743,-3.5742,0,-3.5188,-3.5202,-3.5304,-3.5347,-3.5359,-3.5426,-3.5463,-3.5519,-3.5533,-3.5612,-3.563,-3.5653,-3.5722,-3.5735,-3.5817,-3.5821,-3.5931,-3.5923,-3.5915,-3.5914,-3.5981,-3.5975,-3.6197,-3.6226,-3.6038,-3.604,-3.6041,0,-3.5286,-3.535,-3.54,-3.544,-3.5467,-3.5532,-3.5572,-3.5576,-3.5618,-3.5675,-3.5724,-3.5792,-3.5846,-3.5959,-3.5983,-3.6045,-3.6038,-3.6112,-3.6048,-3.6046,-3.604,-3.6036,-3.6042,-3.6124,-3.6127,-3.6128,-3.613,0,-3.5458,-3.5461,-3.552,-3.5581,-3.5629,-3.5677,-3.5723,-3.5756,-3.5766,-3.5814,-3.5885,-3.5927,-3.6011,-3.6078,-3.614,-3.6166,-3.615,-3.6149,-3.6168,-3.617,-3.6163,-3.6168,-3.5949,-3.6144,-3.6143,-3.6142,-3.6141,-3.614,-3.5581,-3.5636,-3.5679,-3.5745,-3.5779,-3.5822,-3.5876,-3.5896,-3.5955,-3.6023,-3.6021,-3.6099,-3.6142,-3.6223,-3.6253,-3.6313,-3.629,-3.6317,-3.6324,-3.6331,-3.6337,-3.6153,-3.6324,-3.6324,-3.6324,-3.6323,-3.6323,0,-3.5752,-3.5778,-3.5838,-3.5902,-3.5953,-3.5932,-3.5981,-3.6025,-3.6093,-3.6135,-3.6188,-3.6269,-3.6334,-3.6362,-3.6426,-3.6469,-3.6463,-3.6485,-3.6483,-3.6489,-3.6355,-3.6332,-3.6489,-3.6489,-3.6489,-3.6489,-3.6489,-3.6489,-3.5847,-3.594,-3.5947,-3.6056,-3.6081,-3.6157,-3.6186,-3.6225,-3.6258,-3.6349,-3.6402,-3.642,-3.6456,-3.6521,-3.658,-3.6586,-3.6611,-3.6637,-3.664,-3.6515,-3.6498,-3.6482,-3.6461,-3.6642,-3.6642,-3.6769,-3.677,-3.6771]}]]